SL-16 DEB

Satellite information

Favourite Embed

Satellite Type and Status

DEBRISIN ORBIT

Key statistics

Satellite SL-16 DEB at a glance.

Uptime

11951

Days in orbit

Revolutions

≈ 14.0

Per day

Orbit

LEO

Low Earth Orbit

Inclination

71.0

Latest

Satellite identification and parameters

Extended collection of information and parameters for SL-16 DEB.

Object identification

Identified? True

Debris? True

Object name: SL-16 DEB

International designator: 1993-016BV

Object number (NORAD): 39895

Object ID (CCSDS): 39895

Country: COMMONWEALTH OF INDEPENDENT STATES (CIS)

Current information (Y/N): Y

RCS size: SMALL

Orbital parameters

Period: 103.146 minutes

Inclination: 70.9883 deg

SMA: 7285.538 km

Apoapsis: 997.617 km

Periapsis: 817.188 km

RAAN: 217.9188 deg

Eccentricy: 0.01238267

Argument of periapsis: 230.4959 deg

Mean anomaly: 128.5155 deg

Mean motion: 13.96080096 rev/day

Mean motion (dot): 0.00000506 rev/day2

B* drag term: 0.00037725753 1/REarth

Two-line elements (TLE)

Creation date: Dec. 13, 2025, 4:32 a.m.

Reference frame: TEME

Reference center: EARTH

Epoch: Dec. 12, 2025, 10:15 p.m. UTC

TLE line 0: 0 SL-16 DEB

TLE line 1: 1 39895U 93016BV 25346.92712794 .00000506 00000-0 37726-3 0 9993

TLE line 2: 2 39895 70.9883 217.9188 0123827 230.4959 128.5155 13.96080096307922

Live tracking on map

Real-time ground track for satellite SL-16 DEB.

In-orbit conjunctions

A list of the most updated potential collisions computed for object SL-16 DEB.

Target Orbit TCA Probability of collision Miss distance Type
COSMOS 1275 DEB LEO 2025-02-09 01:56:34 0.0001730076 217.0 (m) DEBRIS
COSMOS 2279 LEO 2024-07-25 14:28:10 0.0003185417 236.0 (m) PAYLOAD

Associated space launch

Second generation ELING satellite

SL-16 DEB was lifted into orbit during the mission ‘Zenit-2 | Tselina-2 13’, on board a Zenit-2 space rocket.

The launch took place on March 26, 1993, 2:21 a.m. from 45/1.

For more information about the launch, click the button.

Launch to space Zenit-2 | Tselina-2 13
Zenit-2 | Tselina-2 13

Agency: N/A

Status: Launch Successful

Launch date: March 26, 1993, 2:21 a.m. UTC

Rocket: Zenit-2

Launch pad: 45/1

Location: Baikonur Cosmodrome, Republic of Kazakhstan

...

Latest news about this satellite

There are no fresh news available about this satellite. Check back as we update our databases every day.


Newsletter sign-up

Weekly statistics, charts and insights to help you stay on top of the space industry.